sat.trackr.live / text

‹ back to catalog

STARLINK-4502

NORAD 53557 · 2022-101AG

PAYLOAD ACTIVE UNKNOWN

§ Identity

Operator
Country
US
Launch date
2022-08-19
Launch site
AFETR
Launch vehicle
Mass (kg)
RCS (m²)

Purposes: comms

External: N2YO · Heavens-Above · Gunter

§ Orbital elements

Epoch: 2026-05-25T02:29:23.992224Z

Period
95.44 min
Inclination
53.2136°
Eccentricity
0.0001326
Mean motion
15.08796157 rev/d
Perigee alt
539.0 km
Apogee alt
540.8 km
Semi-major
6,918.0 km
B*
5.5288e-4
RAAN
81.0854°
Arg perigee
95.8640°
Mean anomaly
264.2503°
Rev number
20,849

§ Raw data

STARLINK-45021 53557U 22101AG  26145.10374991  .00008512  00000+0  55288-3 0  99992 53557  53.2136  81.0854 0001326  95.8640 264.2503 15.08796157208491

JSON: /api/v1/satellites/53557 · /tle

For live sub-satellite position, see the globe view (requires WebGL).

§ Visibility from observer

Set your observer location to see the next 7 days of passes ≥ 10°. The values pass through the URL so the page stays shareable.

No JS? Fill the form by hand. The geolocation button needs JavaScript.